Eureka, NV

6:31 PM PST on December 10, 2016 (GMT -0800)
Eureka

Weather History for KP68 - December, 2013

Change the Weather History Date:

Saturday, December 28, 2013

  Actual Average Record
Temperature  
Mean Temperature 26 °F 23 °F  
Max Temperature 43 °F 37 °F 59 °F (2011)
Min Temperature 8 °F 9 °F -24 °F (1966)
Degree Days  
Heating Degree Days 39 42  
Month to date heating degree days 1225 1123  
Since 1 July heating degree days 2836 2882  
Cooling Degree Days 0 0  
Month to date cooling degree days 0 0  
Year to date cooling degree days 585 288  
Moisture  
Dew Point 15 °F    
Average Humidity 57    
Maximum Humidity 84    
Minimum Humidity 30    
Precipitation  
Precipitation 0.00 in 0.02 in 0.15 in (1963)
Month to date precipitation 1.07 0.55  
Year to date precipitation 8.54 8.94  
Sea Level Pressure  
Sea Level Pressure 30.25 in    
Wind  
Wind Speed 5 mph (West)    
Max Wind Speed 14 mph    
Max Gust Speed 16 mph    
T = Trace of Precipitation, MM = Missing Value Source: NWS Daily Summary

Daily Weather History Graph

Daily Weather History Graph

Search for Another Location

Airport or City:

Trip Planner

Search our weather history database for the weather conditions in past years. The results will help you decide how hot, cold, wet, or windy it might be!

Date:

Astronomy

Dec. 28, 2013 Rise Set
Actual Time 7:03 AM PST 4:27 PM PST
Civil Twilight 6:33 AM PST 4:58 PM PST
Nautical Twilight 5:59 AM PST 5:31 PM PST
Astronomical Twilight 5:27 AM PST 6:04 PM PST
Moon 2:46 AM PST (12/28) 1:21 PM PST (12/28)
Length of Visible Light 10h 24m
Length of Day
9h 23m
Waning Crescent, 18% of the Moon is Illuminated
Dec 28
Waning Crescent
Jan 1
New
Jan 7
First Quarter
Jan 15
Full
Jan 23
Last Quarter

Hourly Weather History & Observations

Time (PST) Temp. Windchill Dew Point Humidity Pressure Visibility Wind Dir Wind Speed Gust Speed Precip Events Conditions
12:53 AM 28.0 °F 20.0 °F 18.0 °F 66% 30.14 in - SSW 8.1 mph - N/A   Unknown
1:53 AM 28.0 °F - 18.0 °F 66% 30.13 in - North - - N/A   Unknown
2:53 AM 27.0 °F 21.6 °F 18.0 °F 69% 30.14 in - SSW 4.6 mph - N/A   Unknown
3:53 AM 27.0 °F 18.7 °F 17.1 °F 66% 30.15 in - SSW 8.1 mph - N/A   Unknown
4:53 AM 19.9 °F 10.1 °F 15.1 °F 81% 30.21 in - West 8.1 mph - N/A   Unknown
5:53 AM 21.9 °F 15.7 °F 16.0 °F 78% 30.19 in - SW 4.6 mph - N/A   Unknown
6:53 AM 18.0 °F 12.7 °F 12.0 °F 78% 30.25 in - Variable 3.5 mph - N/A   Unknown
7:53 AM 15.1 °F 9.4 °F 10.9 °F 84% 30.28 in - West 3.5 mph - N/A   Unknown
8:53 AM 21.9 °F 17.2 °F 15.1 °F 75% 30.26 in - SSE 3.5 mph - N/A   Unknown
9:53 AM 30.0 °F 25.2 °F 17.1 °F 59% 30.23 in - SE 4.6 mph - N/A   Unknown
10:53 AM 43.0 °F 40.3 °F 14.0 °F 31% 30.17 in - North 4.6 mph - N/A   Unknown
11:53 AM 39.9 °F 35.1 °F 19.0 °F 43% 30.17 in - NNE 6.9 mph - N/A   Unknown
12:53 PM 41.0 °F 37.1 °F 18.0 °F 40% 30.15 in - NE 5.8 mph - N/A   Unknown
1:53 PM 42.1 °F - 17.1 °F 37% 30.15 in - Calm Calm - N/A   Unknown
2:53 PM 36.0 °F 29.0 °F 23.0 °F 59% 30.20 in - NNE 9.2 mph - N/A   Unknown
3:53 PM 37.0 °F 29.3 °F 21.9 °F 54% 30.20 in - North 11.5 mph - N/A   Unknown
4:53 PM 28.0 °F 18.6 °F 19.9 °F 72% 30.29 in - NNE 10.4 mph - N/A   Unknown
5:53 PM 24.1 °F 19.7 °F 16.0 °F 71% 30.33 in - ENE 3.5 mph - N/A   Unknown
6:53 PM 19.9 °F 12.1 °F 14.0 °F 78% 30.37 in - West 5.8 mph - N/A   Unknown
7:53 PM 18.0 °F - 12.9 °F 81% 30.40 in - Calm Calm - N/A   Unknown
8:53 PM 12.9 °F 5.2 °F 9.0 °F 84% 30.41 in - SW 4.6 mph - N/A   Unknown
9:53 PM 12.0 °F - 7.0 °F 80% 30.39 in - Calm Calm - N/A   Unknown
10:53 PM 12.9 °F 3.8 °F 8.1 °F 81% 30.36 in - SSW 5.8 mph - N/A   Unknown
11:53 PM 10.9 °F - 6.1 °F 81% 30.37 in - Calm Calm - N/A   Unknown